Regional Weather Roundup
Issued by NWS

Home | Current Version | Previous Version | Graphics & Text | Print | Product List | Glossary On
Versions: 1 2 3 4 5 6 7 8 9 10 11 12 13 14 15 16 17 18 19 20 21 22 23 24 25 26 27 28 29 30 31 32 33 34 35 36 37 38 39 40 41 42 43 44 45 46 47 48 49 50
000
ASUS43 KFSD 230002
RWRSD

WEATHER ROUNDUP FOR SOUTH DAKOTA
NATIONAL WEATHER SERVICE SIOUX FALLS SD
700 PM CDT TUE APR 22 2014

NOTE: "FAIR" INDICATES FEW OR NO CLOUDS BELOW 12,000 FEET WITH NO
SIGNIFICANT WEATHER AND/OR OBSTRUCTIONS TO VISIBILITY.


SDZ001>005-009-010-012>017-230100-
NORTHWEST AND NORTH CENTRAL SOUTH DAKOTA

CITY           SKY/WX    TMP DP  RH WIND       PRES   REMARKS
MOBRIDGE       CLOUDY    64  30  27 E28G35    29.75F
$$

SDZ012>016-024>037-041>051-057-063-072>074-230100-
SOUTHWEST AND SOUTH CENTRAL SOUTH DAKOTA

CITY           SKY/WX    TMP DP  RH WIND       PRES   REMARKS
RAPID CTY ARPT CLOUDY    70  46  42 S12       29.61S
PIERRE         CLOUDY    67  33  28 SE31G39   29.70F
CUSTER         CLOUDY    61  38  42 SW8       29.76F
ELLSWORTH AFB  CLOUDY    71  46  40 S14       29.60F
PHILIP         CLOUDY    76  39  26 SE15      29.60F
PINE RIDGE     CLOUDY    75  40  28 SW18G28   29.68R THUNDER
WINNER         FAIR      72  32  23 SE28G36   29.74F
$$

SDZ004>011-016>023-039-040-230100-
NORTHEAST SOUTH DAKOTA

CITY           SKY/WX    TMP DP  RH WIND       PRES   REMARKS
ABERDEEN       PTSUNNY   63  31  30 SE16G24   29.90F
WATERTOWN      CLOUDY    62  31  31 SE16      29.93F
$$

SDZ017-020-022-023-036>040-048>070-230100-
SOUTHEAST SOUTH DAKOTA

CITY           SKY/WX    TMP DP  RH WIND       PRES   REMARKS
SIOUX FALLS    PTSUNNY   63  31  30 S17       29.95F
HURON          CLOUDY    63  29  27 SE12G25   29.88F
CHAMBERLAIN      N/A     69  32  25 SE26G33   29.79F
MITCHELL       MOSUNNY   65  30  27 SE26G35   29.89F
YANKTON        PTSUNNY   64  30  27 SE17      29.94S
$$

ABBREVIATIONS USED IN REMARKS
   TC - TEMPERATURE IN CELSIUS
  WCI - WIND CHILL INDEX
   HX - HEAT INDEX
  VSB - VISIBILITY




USA.gov is the U.S. government's official web portal to all federal, state and local government web resources and services.